User: anonymous   Login
Location: Unspecified
(0.0000°N, 0.0000°E)
Time: 18:09:37
(UTC+00:00)
Language:

STARLINK-3150 - Orbit

View from above orbital plane
View from above orbital plane
View from above satellite
View from above satellite

Ground track
Ground track

The orbit is defined by the following mean orbital elements,

1 49452U          26145.50813057 +.00000000 +00000-0 +37378-4 0 00006
2 49452  53.2136 234.3127 0001073  77.0421 283.0691 15.08838543    04
Epoch (UTC): 25 May 2026 12:11:42
Eccentricity: 0.0001073
inclination: 53.2136°
perigee height: 539 km
apogee height: 540 km
right ascension of ascending node: 234.3127°
argument of perigee: 77.0421°
revolutions per day: 15.08838543
mean anomaly at epoch: 283.0691°

The dashed part of the orbit path shows where the satellite is in the earth's shadow,  

DLR